#timestamp,LO_Frequency,Hit,StdDev 
1570813215.9,286047000.5,N
1570813235.7,286047001.1,N
1570813255.6,286046999.3,N
1570813275.4,286046999.3,N
1570813295.2,286046998.3,N
1570813315.1,286047000.7,N
1570813316.0,286047000.7,N
1570813335.8,286047001.2,N
1570813355.6,286046998.1,N
1570813375.5,286046998.1,N
1570813395.3,286047000.9,N
1570813415.2,286046999.9,N
1570813435.0,286047000.2,N
1570813435.9,286047000.2,N
1570813455.8,286047001.0,N
1570813475.6,286046998.8,N
1570813495.4,286046998.9,N
1570813515.3,286046999.0,N
1570813535.1,286046998.3,N
1570813555.8,286047000.7,N
1570813575.7,286047001.2,N
1570813595.5,286046998.8,N
1570813615.4,286046996.5,N
1570813635.2,286046999.0,N
1570813655.0,286046996.9,N
1570813655.9,286046996.9,N
1570813675.8,286046995.5,N
1570813695.6,286046996.3,N
1570813715.4,286046993.5,Y
1570813735.3,286046996.3,P
1570813755.1,286046993.7,P
1570813775.9,286046996.4,N
1570813795.7,286046994.0,N
1570813815.5,286046996.2,N
1570813835.4,286046994.9,N
1570813855.2,286046997.8,N
1570813875.1,286046995.4,N
1570813876.0,286046995.4,N
1570813895.8,286046997.5,N
1570813915.6,286046997.2,N
1570813935.5,286046996.7,N
1570813955.3,286046996.9,N
1570813975.1,286046996.7,N
1570813995.9,286046996.9,N
1570814015.7,286046997.0,N
1570814035.6,286046996.7,N
1570814055.4,286046996.5,N
1570814075.2,286046996.5,N
1570814095.1,286046999.1,N
1570814096.0,286046999.1,N
1570814115.8,286046999.4,N
1570814135.7,286046999.2,N
1570814155.5,286046997.4,N
1570814175.3,286046997.6,N
1570814195.2,286046997.2,N
1570814215.0,286046998.9,N
1570814215.9,286046998.9,N
1570814235.8,286046999.5,N
1570814255.6,286046998.9,N
1570814275.4,286046996.9,N
1570814295.3,286046996.7,N
1570814315.1,286046996.7,N
1570814335.9,286046997.8,N
1570814355.7,286046996.6,N
1570814375.5,286046996.8,N
1570814395.4,286046999.1,N
1570814415.2,286046999.1,N
1570814435.0,286046996.5,Y
1570814435.9,286046996.5,P
1570814455.8,286047001.1,N
1570814475.6,286047001.0,N
1570814495.5,286046999.9,N
1570814515.3,286046998.2,N
1570814535.1,286046998.7,N
1570814555.9,286046996.7,N
1570814575.7,286046997.3,N
1570814595.6,286046997.4,N
1570814615.4,286046997.5,N
1570814635.2,286046997.7,N
1570814655.1,286046997.1,N
1570814656.0,286046997.1,N
1570814675.8,286046997.7,N
1570814695.7,286046996.9,N
1570814715.5,286046999.1,N
1570814735.3,286046999.6,N
1570814755.2,286046997.3,N
1570814775.9,286046997.0,N
1570814795.7,286046996.8,N
1570814815.6,286046999.4,N
1570814835.4,286047000.7,N
1570814855.3,286046999.7,N
1570814875.1,286047000.6,N
1570814876.0,286047000.6,N
1570814895.8,286046999.9,N
1570814915.7,286047000.1,N
1570814935.5,286047000.1,N
1570814955.3,286047000.0,N
1570814975.2,286046999.4,N
1570814995.1,286046998.7,N
1570815015.9,286046998.3,N
1570815035.7,286047000.9,N
1570815055.5,286047000.9,N
1570815075.4,286047000.7,N
1570815095.2,286046998.1,N
1570815115.0,286047000.7,N
1570815115.9,286047000.7,N
1570815135.8,286047000.9,N
1570815155.6,286047000.9,N
1570815175.5,286046998.2,N
1570815195.3,286046998.2,N
1570815215.1,286046997.1,N
1570815235.9,286046998.9,N
1570815255.7,286046997.0,N
1570815275.5,286046999.5,N
1570815295.4,286046999.3,N
1570815315.2,286046998.6,N
1570815335.1,286046996.5,N
1570815336.0,286046996.5,N
1570815355.8,286046999.1,N
1570815375.6,286046995.1,Y
1570815395.5,286046997.3,P
1570815415.3,286046999.3,N
1570815435.2,286046998.1,N
1570815455.9,286047000.7,N
1570815475.7,286047001.0,N
1570815495.6,286047000.9,N
1570815515.4,286046998.3,N
1570815535.2,286046999.0,N
1570815555.1,286046998.6,N
1570815556.0,286046998.6,N
1570815575.8,286046999.4,N
1570815595.7,286046998.8,N
1570815615.5,286046996.8,Y
1570815635.3,286046996.5,P
1570815655.2,286046999.2,N
1570815675.0,286047001.0,N
1570815675.9,286047001.0,N
1570815695.8,286046999.9,N
1570815715.6,286047001.1,N
1570815735.4,286046999.0,N
1570815755.3,286046996.8,N
1570815775.1,286046996.7,N
1570815795.9,286046997.2,N
1570815815.7,286046999.3,N
1570815835.5,286046998.6,N
1570815855.4,286046998.1,N
1570815875.2,286046998.2,N
1570815895.0,286046998.7,N
1570815896.0,286046998.7,N
1570815915.8,286046996.5,N
1570815935.6,286046999.3,N
1570815955.5,286046999.9,N
1570815975.3,286046998.5,N
1570815995.1,286046999.0,N
1570816015.9,286047000.0,N
1570816035.7,286046998.7,N
1570816055.6,286046999.7,N
1570816075.4,286047002.5,N
1570816095.2,286047001.1,N
1570816115.1,286046998.5,N
1570816116.0,286046998.5,N
1570816135.8,286047000.2,N
1570816155.7,286047003.7,N
1570816175.5,286047001.7,N
1570816195.3,286047000.1,N
1570816215.2,286047001.6,N
1570816235.0,286047002.8,N
1570816235.9,286047002.8,N
1570816255.8,286047002.8,N
1570816275.6,286047002.8,N
1570816295.4,286047002.4,N
1570816315.3,286046998.4,N
1570816335.1,286047000.4,N
1570816355.8,286046998.1,N
1570816375.7,286047002.6,N
1570816395.5,286046998.5,N
1570816415.4,286046998.9,N
1570816435.2,286047000.2,N
1570816455.0,286046999.8,N
1570816455.9,286046999.8,N
1570816475.8,286047000.7,N
1570816495.6,286047000.7,N
1570816515.5,286047000.9,N
1570816535.3,286047002.4,N
1570816555.1,286047000.2,N
1570816575.9,286047002.0,N
1570816595.7,286047002.1,N
1570816615.6,286047004.3,N
1570816635.4,286047000.1,N
1570816655.2,286046998.4,N
1570816675.1,286047001.1,N
1570816676.0,286047001.1,N
1570816695.8,286047002.4,N
1570816715.7,286047004.4,N
1570816735.5,286047003.9,N
1570816755.3,286047003.7,N
1570816775.2,286047003.0,N
1570816795.0,286047005.8,Y
1570816795.9,286047005.8,P
